Regional Weather Roundup
Issued by NWS

Home | Current Version | Previous Version | Text Only | Print | Product List | Glossary On
Versions: 1 2 3 4 5 6 7 8 9 10 11 12 13 14 15 16 17 18 19 20 21 22 23 24 25 26 27 28 29 30 31 32 33 34 35 36 37 38 39 40 41 42 43 44 45 46 47 48 49 50
000
ASUS43 KDTX 260210
RWRMI
MICHIGAN HOURLY REGIONAL WEATHER ROUNDUP
NATIONAL WEATHER SERVICE DETROIT/PONTIAC MI
900 PM EST THU DEC 25 2014

NOTE: "FAIR" INDICATES FEW OR NO CLOUDS BELOW 12,000 FEET WITH NO
SIGNIFICANT WEATHER AND/OR OBSTRUCTION TO VISIBILITY.

MIZ047>049-052>055-059>063-066>070-074>076-081>083-260300-
SOUTHEAST LOWER MICHIGAN

CITY           SKY/WX    TMP DP  RH WIND       PRES   REMARKS
ADRIAN           N/A     33  29  85 SW8       30.12F
ALMA           PTCLDY    32  30  93 S7        30.04F
ANN ARBOR      CLEAR     34  29  82 SW8       30.10S
BAD AXE        MOCLDY    34  31  86 SW10G18   30.05R
DETROIT CITY     N/A     38  29  70 SW13      30.13R
DETROIT        MOCLDY    35  29  78 S10       30.12F
FLINT          PTCLDY    35  28  75 SW8       30.07S
GROSSE ILE     CLEAR     36  30  80 SW9       30.12F
HILLSDALE      CLEAR     34  31  89 S6        30.08F
HOWELL         CLEAR     33  30  88 S7        30.07F

CITY           SKY/WX    TMP DP  RH WIND       PRES   REMARKS
JACKSON        CLEAR     34  28  79 S9        30.07F
LAMBERTVILLE   PTCLDY    37  30  75 SW7       30.14F
LANSING        CLEAR     33  28  81 S9        30.06F
LAPEER         NOT AVBL
MASON          CLEAR     32  29  86 S3        30.07S
MONROE         CLEAR     36  30  80 SW6       30.12F
MT. CLEMENS    CLEAR     36  33  88 SW9       30.10R
PONTIAC        PTCLDY    33  28  81 S8        30.08R
PORT HOPE        N/A     35  29  78 SW12G18   30.01R
PORT HURON     PTCLDY    36  30  80 SW7       30.11R
TRI CITIES     MOCLDY    35  28  75 SW8       30.04R
YPSILANTI      CLEAR     37  29  72 SW10      30.11F
$$
MIZ043>046-050>051-056>058-064>065-071>073-077>080-260300-
SOUTHWEST LOWER MICHIGAN

CITY           SKY/WX    TMP DP  RH WIND       PRES   REMARKS
BATTLE CREEK   CLEAR     35  29  78 S13       30.07R
BENTON HARBOR  CLOUDY    36  32  85 S10       30.04S
BIG RAPIDS     CLOUDY    35  33  92 S8        29.98S
COLDWATER      PTCLDY    34  30  84 MISG      30.08S
HOLLAND        PTCLDY    36  30  79 S12       30.03R
GRAND RAPIDS   PTCLDY    33  29  85 S9        30.03F
KALAMAZOO      PTCLDY    35  30  82 S12       30.07R
MARSHALL       CLEAR     33  29  87 S8        30.07R
MUSKEGON       PTCLDY    37  31  78 S10       30.01S
$$
MIZ016>042-260300-
NORTHERN LOWER MICHIGAN

CITY           SKY/WX    TMP DP  RH WIND       PRES   REMARKS
ALPENA         CLOUDY    35  28  75 SW14G24   29.97R
BEAVER ISLAND  RAIN      35  33  93 W12       29.93R
BELLAIRE       CLOUDY    36  31  81 S3        29.96R
CADILLAC       CLOUDY    33  31  93 CALM      29.95R
CHARLEVOIX     LGT RAIN  36  32  87 SW7       29.96S
FRANKFORT      CLOUDY    39  35  85 SW12G18   29.95R
GAYLORD        CLOUDY    32  29  88 SW9       29.93R
GRAYLING       CLOUDY    33  30  89 S6        29.96R
HARBOR SPRINGS CLOUDY    36  32  85 SW8       29.93R
HOUGHTON LAKE  CLOUDY    33  29  85 SW8       29.97R
MANISTEE       CLOUDY    36  30  80 S6        29.97S
OSCODA         CLOUDY    35  30  82 SW12G20   30.00R
PELLSTON       LGT RAIN  36  31  82 SW7       29.93R
TRAVERSE CITY  CLOUDY    37  31  78 VRB3      29.95R
$$
MIZ007>008-015-260300-
EASTERN UPPER MICHIGAN

CITY           SKY/WX    TMP DP  RH WIND       PRES   REMARKS
KINROSS        CLOUDY    34  34 100 SW5       29.90R
MACKINAC ISLAN CLOUDY    36  34  94 SW9G16    29.92R
NEWBERRY       CLOUDY    31  31  97 SW8       29.89R
S. S. MARIE    CLOUDY    34  29  82 SW12      29.89F
$$
MIZ004>006-011>014-085-260300-
CENTRAL UPPER MICHIGAN

CITY           SKY/WX    TMP DP  RH WIND       PRES   REMARKS
MANISTIQUE     CLOUDY    33  32  94 MISG      29.90R
ESCANABA       CLOUDY    34  28  80 SW7       29.91R
MENOMINEE      CLOUDY    34  28  80 SW6       29.91R
SAWYER-GWINN   CLOUDY    32  30  93 SW6       29.86R
$$
MIZ001>003-009>011-084-260300-
WESTERN UPPER MICHIGAN

CITY           SKY/WX    TMP DP  RH WIND       PRES   REMARKS
IRON MOUNTAIN  LGT SNOW  32  30  92 S5        29.87R FOG
HOUGHTON       CLOUDY    32  29  88 W5        29.83R
COPPER HARBOR    N/A     35  30  82 NW7       29.85R
IRONWOOD       CLOUDY    30  30 100 SW3       29.83S
$$

ABBREVIATIONS USED IN REMARKS
   TC - TEMPERATURE IN CELSIUS
  WCI - WIND CHILL INDEX
   HX - HEAT INDEX
  VSB - VISIBILITY




USA.gov is the U.S. government's official web portal to all federal, state and local government web resources and services.